• In Deutschland
  • Länderverzeichnis
  • Für 7 Tage
  • Wassertemperatur
  • Satellitenkarten
  • Wetterkarte
  • Widgets
  • user-avatar
    Anmelden

    Stündliche Wetter Gweru

    Heute, 18 September, Dienstag

    Zeit Temperatur Niederschläge Wind Luftdruck Luftfeuchtigkeit
    00:00 +21°C° 0 mm 2 m/S 644 mmHg 11%
    01:00 +20°C° 0 mm 2 m/S 644 mmHg 13%
    02:00 +20°C° 0 mm 2 m/S 644 mmHg 16%
    03:00 +19°C° 0 mm 2 m/S 644 mmHg 20%
    04:00 +18°C° 0 mm 2 m/S 643 mmHg 25%
    05:00 +18°C° 0 mm 2 m/S 643 mmHg 29%
    06:00 +20°C° 0 mm 2 m/S 644 mmHg 27%
    07:00 +23°C° 0 mm 2 m/S 645 mmHg 25%
    08:00 +26°C° 0 mm 2 m/S 646 mmHg 22%
    09:00 +29°C° 0 mm 2 m/S 647 mmHg 17%
    10:00 +32°C° 0 mm 2 m/S 647 mmHg 13%
    11:00 +35°C° 0 mm 1 m/S 648 mmHg 9%
    12:00 +36°C° 0 mm 2 m/S 647 mmHg 7%
    13:00 +37°C° 0 mm 2 m/S 647 mmHg 6%
    14:00 +37°C° 0 mm 2 m/S 647 mmHg 5%
    15:00 +37°C° 0 mm 3 m/S 647 mmHg 5%
    16:00 +36°C° 0 mm 3 m/S 646 mmHg 5%
    17:00 +35°C° 0 mm 3 m/S 646 mmHg 5%
    18:00 +31°C° 0 mm 3 m/S 646 mmHg 6%
    19:00 +29°C° 0 mm 3 m/S 645 mmHg 8%
    20:00 +26°C° 0 mm 2 m/S 645 mmHg 9%
    21:00 +25°C° 0 mm 2 m/S 645 mmHg 9%
    22:00 +24°C° 0 mm 3 m/S 645 mmHg 10%
    23:00 +22°C° 0 mm 3 m/S 645 mmHg 10%

    Morgen, 19 September, Mittwoch

    Zeit Temperatur Niederschläge Wind Luftdruck Luftfeuchtigkeit
    00:00 +22°C° 0 mm 3 m/S 645 mmHg 13%
    01:00 +21°C° 0 mm 3 m/S 645 mmHg 16%
    02:00 +20°C° 0 mm 3 m/S 645 mmHg 19%
    03:00 +20°C° 0 mm 3 m/S 645 mmHg 22%
    04:00 +19°C° 0 mm 2 m/S 644 mmHg 26%
    05:00 +18°C° 0 mm 2 m/S 644 mmHg 29%
    06:00 +20°C° 0 mm 3 m/S 645 mmHg 26%
    07:00 +22°C° 0 mm 3 m/S 646 mmHg 23%
    08:00 +26°C° 0 mm 3 m/S 647 mmHg 20%
    09:00 +28°C° 0 mm 3 m/S 647 mmHg 17%
    10:00 +31°C° 0 mm 3 m/S 648 mmHg 13%
    11:00 +35°C° 0 mm 2 m/S 648 mmHg 9%
    12:00 +36°C° 0 mm 2 m/S 648 mmHg 8%
    13:00 +37°C° 0 mm 2 m/S 648 mmHg 7%
    14:00 +39°C° 0 mm 1 m/S 647 mmHg 5%
    15:00 +38°C° 0 mm 2 m/S 647 mmHg 5%
    16:00 +37°C° 0 mm 2 m/S 646 mmHg 6%
    17:00 +36°C° 0 mm 2 m/S 646 mmHg 6%
    18:00 +32°C° 0 mm 2 m/S 645 mmHg 7%
    19:00 +29°C° 0 mm 2 m/S 645 mmHg 8%
    20:00 +27°C° 0 mm 2 m/S 645 mmHg 10%
    21:00 +26°C° 0 mm 2 m/S 645 mmHg 11%
    22:00 +25°C° 0 mm 2 m/S 646 mmHg 12%
    23:00 +24°C° 0 mm 2 m/S 646 mmHg 13%

    übermorgen, 20 September, Donnerstag

    Zeit Temperatur Niederschläge Wind Luftdruck Luftfeuchtigkeit
    00:00 +23°C° 0 mm 2 m/S 646 mmHg 16%
    01:00 +23°C° 0 mm 2 m/S 645 mmHg 18%
    02:00 +21°C° 0 mm 2 m/S 645 mmHg 21%
    03:00 +20°C° 0 mm 2 m/S 645 mmHg 23%
    04:00 +19°C° 0 mm 2 m/S 645 mmHg 25%
    05:00 +19°C° 0 mm 2 m/S 644 mmHg 27%
    06:00 +21°C° 0 mm 2 m/S 645 mmHg 23%
    07:00 +24°C° 0 mm 3 m/S 646 mmHg 20%
    08:00 +26°C° 0 mm 4 m/S 647 mmHg 17%
    09:00 +29°C° 0 mm 4 m/S 648 mmHg 14%
    10:00 +32°C° 0 mm 4 m/S 649 mmHg 12%
    11:00 +34°C° 0 mm 4 m/S 649 mmHg 10%
    12:00 +34°C° 0 mm 5 m/S 649 mmHg 11%
    13:00 +34°C° 0 mm 6 m/S 648 mmHg 11%
    14:00 +35°C° 0 mm 6 m/S 647 mmHg 12%
    15:00 +33°C° 0 mm 7 m/S 647 mmHg 15%
    16:00 +32°C° 0 mm 7 m/S 646 mmHg 19%
    17:00 +30°C° 0 mm 7 m/S 646 mmHg 22%
    18:00 +28°C° 0 mm 7 m/S 646 mmHg 31%
    19:00 +26°C° 0 mm 7 m/S 646 mmHg 41%
    20:00 +23°C° 0 mm 7 m/S 647 mmHg 50%
    21:00 +22°C° 0 mm 7 m/S 647 mmHg 56%
    22:00 +21°C° 0 mm 7 m/S 647 mmHg 63%
    23:00 +20°C° 0 mm 7 m/S 647 mmHg 70%

    21 September, Freitag

    Zeit Temperatur Niederschläge Wind Luftdruck Luftfeuchtigkeit
    00:00 +20°C° 0 mm 6 m/S 647 mmHg 72%
    01:00 +19°C° 0 mm 6 m/S 647 mmHg 74%
    02:00 +19°C° 0 mm 5 m/S 646 mmHg 75%
    03:00 +17°C° 0 mm 5 m/S 646 mmHg 77%
    04:00 +18°C° 0 mm 4 m/S 646 mmHg 80%
    05:00 +17°C° 0 mm 4 m/S 646 mmHg 82%
    06:00 +18°C° 0 mm 4 m/S 646 mmHg 75%
    07:00 +20°C° 0 mm 4 m/S 647 mmHg 67%
    08:00 +21°C° 0 mm 4 m/S 648 mmHg 60%
    09:00 +25°C° 0 mm 4 m/S 648 mmHg 49%
    10:00 +28°C° 0 mm 4 m/S 649 mmHg 37%
    11:00 +30°C° 0 mm 4 m/S 649 mmHg 25%
    12:00 +33°C° 0 mm 4 m/S 648 mmHg 21%
    13:00 +34°C° 0 mm 4 m/S 648 mmHg 18%
    14:00 +35°C° 0 mm 3 m/S 647 mmHg 15%
    15:00 +34°C° 0 mm 4 m/S 647 mmHg 15%
    16:00 +34°C° 0 mm 4 m/S 646 mmHg 16%
    17:00 +33°C° 0 mm 5 m/S 646 mmHg 16%
    18:00 +30°C° 0 mm 5 m/S 646 mmHg 20%
    19:00 +28°C° 0 mm 5 m/S 646 mmHg 25%
    20:00 +26°C° 0 mm 4 m/S 646 mmHg 29%
    21:00 +25°C° 0 mm 4 m/S 646 mmHg 34%
    22:00 +24°C° 0 mm 3 m/S 647 mmHg 39%
    23:00 +21°C° 0 mm 3 m/S 647 mmHg 43%

    22 September, Samstag

    Zeit Temperatur Niederschläge Wind Luftdruck Luftfeuchtigkeit
    00:00 +21°C° 0 mm 2 m/S 646 mmHg 45%
    01:00 +20°C° 0 mm 2 m/S 646 mmHg 47%
    02:00 +19°C° 0 mm 2 m/S 645 mmHg 48%
    03:00 +18°C° 0 mm 2 m/S 645 mmHg 48%
    04:00 +18°C° 0 mm 2 m/S 645 mmHg 48%
    05:00 +17°C° 0 mm 2 m/S 645 mmHg 48%
    06:00 +19°C° 0 mm 2 m/S 646 mmHg 42%
    07:00 +21°C° 0 mm 3 m/S 647 mmHg 35%
    08:00 +25°C° 0 mm 3 m/S 648 mmHg 29%
    09:00 +27°C° 0 mm 3 m/S 648 mmHg 24%
    10:00 +29°C° 0 mm 3 m/S 648 mmHg 20%
    11:00 +33°C° 0 mm 3 m/S 648 mmHg 15%
    12:00 +34°C° 0 mm 4 m/S 648 mmHg 14%
    13:00 +34°C° 0 mm 4 m/S 647 mmHg 13%
    14:00 +35°C° 0 mm 4 m/S 646 mmHg 11%
    15:00 +34°C° 0 mm 5 m/S 646 mmHg 11%
    16:00 +34°C° 0 mm 5 m/S 646 mmHg 12%
    17:00 +33°C° 0 mm 5 m/S 645 mmHg 12%
    18:00 +30°C° 0 mm 5 m/S 645 mmHg 14%
    19:00 +28°C° 0 mm 4 m/S 646 mmHg 15%
    20:00 +26°C° 0 mm 4 m/S 646 mmHg 17%
    21:00 +23°C° 0 mm 4 m/S 646 mmHg 18%
    22:00 +22°C° 0 mm 3 m/S 646 mmHg 20%
    23:00 +21°C° 0 mm 3 m/S 646 mmHg 21%

    23 September, Sonntag

    Zeit Temperatur Niederschläge Wind Luftdruck Luftfeuchtigkeit
    00:00 +20°C° 0 mm 3 m/S 646 mmHg 24%
    01:00 +19°C° 0 mm 3 m/S 645 mmHg 26%
    02:00 +18°C° 0 mm 2 m/S 645 mmHg 28%
    03:00 +18°C° 0 mm 2 m/S 645 mmHg 30%
    04:00 +17°C° 0 mm 2 m/S 645 mmHg 32%
    05:00 +16°C° 0 mm 2 m/S 645 mmHg 33%
    06:00 +19°C° 0 mm 2 m/S 646 mmHg 29%
    07:00 +21°C° 0 mm 3 m/S 647 mmHg 25%
    08:00 +24°C° 0 mm 3 m/S 647 mmHg 21%
    09:00 +27°C° 0 mm 3 m/S 648 mmHg 18%
    10:00 +29°C° 0 mm 3 m/S 648 mmHg 14%
    11:00 +33°C° 0 mm 3 m/S 648 mmHg 11%
    12:00 +34°C° 0 mm 3 m/S 648 mmHg 10%
    13:00 +34°C° 0 mm 4 m/S 647 mmHg 9%
    14:00 +35°C° 0 mm 4 m/S 646 mmHg 9%
    15:00 +34°C° 0 mm 4 m/S 646 mmHg 9%
    16:00 +34°C° 0 mm 5 m/S 646 mmHg 9%
    17:00 +33°C° 0 mm 5 m/S 646 mmHg 10%
    18:00 +30°C° 0 mm 5 m/S 646 mmHg 11%
    19:00 +28°C° 0 mm 4 m/S 646 mmHg 13%
    20:00 +26°C° 0 mm 4 m/S 646 mmHg 15%
    21:00 +24°C° 0 mm 3 m/S 646 mmHg 18%
    22:00 +22°C° 0 mm 3 m/S 646 mmHg 21%
    23:00 +21°C° 0 mm 2 m/S 646 mmHg 24%
    Mehr zeigen